Time,TemperatureF,DewpointF,PressureIn,WindDirection,WindDirectionDegrees,WindSpeedMPH,WindSpeedGustMPH,Humidity,HourlyPrecipIn,Conditions,Clouds,dailyrainin,SoftwareType,DateUTC
2013-08-23 00:22:00,67.0,63.0,-100.00,South,170,5.0,6.0,87,0.00,,,-99.99,,2013-08-23 05:22:00,
2013-08-23 00:42:00,67.0,63.0,-100.00,South,170,4.0,6.0,87,0.00,,,-99.99,,2013-08-23 05:42:00,
2013-08-23 01:21:00,67.0,63.0,-100.00,South,175,3.0,4.0,87,0.00,,,-99.99,,2013-08-23 06:21:00,
2013-08-23 01:42:00,66.0,62.0,-100.00,South,175,3.0,4.0,87,0.00,,,-99.99,,2013-08-23 06:42:00,
2013-08-23 02:22:00,66.0,62.0,-100.00,South,180,2.0,3.0,87,0.00,,,-99.99,,2013-08-23 07:22:00,
2013-08-23 02:42:00,67.0,63.0,-100.00,South,175,2.0,2.0,87,0.00,,,-99.99,,2013-08-23 07:42:00,
2013-08-23 06:11:00,63.0,60.0,-100.00,ENE,60,0.0,4.0,87,0.00,,,-99.99,,2013-08-23 11:11:00,
2013-08-23 06:22:00,63.0,59.0,-100.00,East,100,2.0,3.0,87,0.00,,,-99.99,,2013-08-23 11:22:00,
2013-08-23 06:42:00,62.0,58.0,-100.00,East,90,2.0,5.0,87,0.00,,,-99.99,,2013-08-23 11:42:00,
2013-08-23 08:42:00,68.0,64.0,-100.00,East,100,4.0,6.0,87,0.00,,,-99.99,,2013-08-23 13:42:00,
2013-08-23 09:21:00,71.0,67.0,-100.00,ESE,115,4.0,9.0,87,0.00,,,-99.99,,2013-08-23 14:21:00,
2013-08-23 09:42:00,71.0,67.0,-100.00,ESE,120,4.0,7.0,85,0.00,,,-99.99,,2013-08-23 14:42:00,
2013-08-23 10:11:00,72.0,65.0,-100.00,SE,130,6.0,11.0,76,0.00,,,-99.99,,2013-08-23 15:11:00,
2013-08-23 10:22:00,73.0,64.0,-100.00,East,100,6.0,11.0,73,0.00,,,-99.99,,2013-08-23 15:22:00,
2013-08-23 10:44:00,74.0,64.0,-100.00,ESE,115,7.0,11.0,70,0.00,,,-99.99,,2013-08-23 15:44:00,
2013-08-23 11:24:00,76.0,64.0,-100.00,South,175,5.0,9.0,66,0.00,,,-99.99,,2013-08-23 16:24:00,
2013-08-23 11:42:00,76.0,63.0,-100.00,SE,140,9.0,13.0,63,0.00,,,-99.99,,2013-08-23 16:42:00,
2013-08-23 12:23:00,78.0,60.0,-100.00,SSE,165,8.0,12.0,53,0.00,,,-99.99,,2013-08-23 17:23:00,
2013-08-23 12:43:00,79.0,60.0,-100.00,South,190,8.0,12.0,52,0.00,,,-99.99,,2013-08-23 17:43:00,
2013-08-23 14:22:00,83.0,58.0,-100.00,SSE,155,7.0,13.0,42,0.00,,,-99.99,,2013-08-23 19:22:00,
2013-08-23 15:22:00,83.0,57.0,-100.00,SSE,150,7.0,12.0,40,0.00,,,-99.99,,2013-08-23 20:22:00,
2013-08-23 15:42:00,84.0,57.0,-100.00,SSW,200,8.0,14.0,40,0.00,,,-99.99,,2013-08-23 20:42:00,
2013-08-23 16:11:00,82.0,55.0,-100.00,SSE,150,9.0,14.0,39,0.00,,,-99.99,,2013-08-23 21:11:00,
2013-08-23 16:21:00,83.0,56.0,-100.00,SSE,165,8.0,12.0,39,0.00,,,-99.99,,2013-08-23 21:21:00,
2013-08-23 16:44:00,83.0,55.0,-100.00,SSE,155,6.0,13.0,39,0.00,,,-99.99,,2013-08-23 21:44:00,
2013-08-23 17:24:00,83.0,56.0,-100.00,South,180,7.0,12.0,40,0.00,,,-99.99,,2013-08-23 22:24:00,
2013-08-23 17:43:00,82.0,56.0,-100.00,South,180,7.0,12.0,41,0.00,,,-99.99,,2013-08-23 22:43:00,
2013-08-23 18:22:00,81.0,56.0,-100.00,South,175,7.0,12.0,42,0.00,,,-99.99,,2013-08-23 23:22:00,
2013-08-23 18:43:00,80.0,56.0,-100.00,SSE,165,9.0,12.0,44,0.00,,,-99.99,,2013-08-23 23:43:00,
2013-08-23 19:22:00,78.0,56.0,-100.00,SSE,165,6.0,9.0,47,0.00,,,-99.99,,2013-08-24 00:22:00,
2013-08-23 19:43:00,77.0,56.0,-100.00,SSE,160,6.0,8.0,48,0.00,,,-99.99,,2013-08-24 00:43:00,
2013-08-23 20:22:00,74.0,56.0,-100.00,SSE,165,5.0,7.0,52,0.00,,,-99.99,,2013-08-24 01:22:00,
2013-08-23 20:42:00,74.0,56.0,-100.00,SE,145,2.0,4.0,52,0.00,,,-99.99,,2013-08-24 01:42:00,
2013-08-23 21:12:00,74.0,57.0,-100.00,SSE,150,4.0,6.0,55,0.00,,,-99.99,,2013-08-24 02:12:00,
2013-08-23 21:22:00,73.0,58.0,-100.00,SSE,150,6.0,7.0,60,0.00,,,-99.99,,2013-08-24 02:22:00,
2013-08-23 21:42:00,72.0,59.0,-100.00,SE,145,7.0,9.0,64,0.00,,,-99.99,,2013-08-24 02:42:00,
2013-08-23 22:12:00,71.0,60.0,-100.00,SSE,155,6.0,9.0,66,0.00,,,-99.99,,2013-08-24 03:12:00,
2013-08-23 22:22:00,70.0,60.0,-100.00,SSE,165,7.0,9.0,68,0.00,,,-99.99,,2013-08-24 03:22:00,
2013-08-23 22:41:00,70.0,58.0,-100.00,SSE,160,7.0,9.0,65,0.00,,,-99.99,,2013-08-24 03:41:00,
2013-08-23 22:44:00,70.0,58.0,-100.00,South,175,7.0,10.0,67,0.00,,,-99.99,,2013-08-24 03:44:00,
2013-08-23 23:14:00,70.0,58.0,-100.00,SSE,160,7.0,9.0,65,0.00,,,-99.99,,2013-08-24 04:14:00,
2013-08-23 23:24:00,70.0,58.0,-100.00,SSE,160,7.0,9.0,65,0.00,,,-99.99,,2013-08-24 04:24:00,
2013-08-23 23:34:00,70.0,58.0,-100.00,SSE,160,7.0,9.0,65,0.00,,,-99.99,,2013-08-24 04:34:00,